Find AprizeSat-10

NORAD ID: 40019 Int'l Des: 2014-033 Owner: SPQ Country: US operational
LEOCIRCULARRETROGRADESSO

Live Position

Loading 3D Globe...

About AprizeSat-10

Description loading...

Upcoming Passes

Passes for default location (London). Set your location on the main map for personalized predictions.

Altitude History

Loading altitude history...

Two-Line Element Set

1 40019U 14033K 26104.86022227 .00000391 00000-0 68995-4 0 9991
2 40019 97.9546 233.2704 0080168 115.6537 245.2979 14.70821827632940
Epoch: Apr 14, 2026 • Age: 12 hours

Current Status

Altitude 645.4 km
Velocity 7.55 km/s
Sub-Earth Point 43.47°N, 101.43°W
Launch Date Jun 19, 2014
Age 11.8 years
Type other

Technical Details

Classification Payload
Mass 14.00 kg
Dry Mass 14.00 kg
Total Mass 14.00 kg
Length 0.20 m
Diameter 0.20 m
Span 0.20 m
Shape Box + Ant
Manufacturer SPQ
Bus Type Aprize
Phase Status Unknown Active Status
Owner/State SPQ/US

Most Searched